Strona główna
METAR-TAF:

METAR-TAF

Lotnisko :

Wings Field

Filadelfia / Blue Bell, Pensylwania, Stany Zjednoczone

Szerokość geograficzna: 40-08-15N, Długość geograficzna: 075-15-54W, wysokość: 92 m

Aktualna obserwacja pogody

Raport powstał 16 minut temu, godzina 17:15 UTC
Wiatr 7 kt od południe
Temperatura 29°C
Wilgotność 43%
Ciśnienie 1012 hPa
Widzialność: 16.1 km
bezchmurnie

METAR: KLOM 241715Z AUTO 18007KT 10SM CLR 29/15 A2988 RMK AO2 T02920151

czas: 13:31 (17:31 UTC)


TAF: brakujący

Obserwacja i prognoza pogody dla ponad 4000 lotnisk (raport METAR i TAF).

Dostępne stacje oznaczono żółtymi i czerwonymi punktami na mapie.

Najedź kursorem aby zobaczyć nazwę stacji.

Kliknij aby zobaczyć obserwacje i prognozy pogody.

Aby zmienić mapę: kliknij na zielony przycisk z czarnym krzyżykiem, aby powiększyć; na zielony przycisk z myślnikiem, aby pomniejszyć; na zielone strzałki, aby przejść do map sąsiednich.


METAR-TAF: